Waarnemingen

Advertentie
Mijn weer
Palma De Mallorca/Son San Ju, Spanje (8306): temperatuur & dauwpunt: 13.11.2017 20:00:00 - 19.11.2017 20:00:00 (CET)Palma De Mallorca/Son San Ju, Spanje (8306): windsnelheid: 13.11.2017 20:00:00 - 19.11.2017 20:00:00 (CET)Palma De Mallorca/Son San Ju, Spanje (8306): windrichting: 13.11.2017 20:00:00 - 19.11.2017 20:00:00 (CET)Palma De Mallorca/Son San Ju, Spanje (8306): luchtdruk: 13.11.2017 20:00:00 - 19.11.2017 20:00:00 (CET)Palma De Mallorca/Son San Ju, Spanje (8306): zicht: 13.11.2017 20:00:00 - 19.11.2017 20:00:00 (CET)
Datum & Tijd tt [°C] td [°C] ff [km/u] ff [kn] dd ppp [hPa] vv [km]
19.11.2017 20:00:00 11,0 8,9 0 0 N 1022,1 10
19.11.2017 19:00:00 13,7 9,9 0 0 N 1021,4 10
19.11.2017 18:00:00 15,1 9,7 5 3 NW 1020,8 10
19.11.2017 17:00:00 18,5 9,8 4 2 - 1020,5 10
19.11.2017 16:00:00 19,7 9,1 11 6 NW 1020,3 10
19.11.2017 15:00:00 20,6 8,2 11 6 W 1020,3 10
19.11.2017 14:00:00 20,3 10,5 15 8 WZW 1020,5 10
19.11.2017 13:00:00 20,0 11,7 13 7 WZW 1021,1 10
19.11.2017 12:00:00 19,2 13,1 9 5 WZW 1021,6 10
19.11.2017 11:00:00 18,2 12,9 0 0 N 1021,9 10
19.11.2017 10:00:00 13,6 11,0 0 0 N 1021,7 10
19.11.2017 09:00:00 8,8 8,0 2 1 NNO 1021,6 10
19.11.2017 08:00:00 5,3 4,9 2 1 - 1021,3 10
19.11.2017 07:00:00 5,3 4,8 0 0 N 1020,9 10
19.11.2017 06:00:00 5,5 5,0 0 0 N 1020,6 10
19.11.2017 05:00:00 5,6 5,0 2 1 NO 1020,6 10
19.11.2017 04:00:00 5,6 5,0 2 1 - 1020,7 10
19.11.2017 03:00:00 5,8 5,1 4 2 NO 1020,9 10
19.11.2017 02:00:00 7,0 6,4 0 0 N 1021,0 10
19.11.2017 01:00:00 8,1 7,3 0 0 N 1021,3 10
19.11.2017 00:00:00 8,8 8,0 4 2 NO 1021,7 10
18.11.2017 23:00:00 8,9 7,7 2 1 O 1021,8 10
18.11.2017 22:00:00 9,8 8,4 2 1 NNW 1021,7 10
18.11.2017 21:00:00 11,0 9,1 5 3 N 1021,6 10
18.11.2017 20:00:00 12,2 9,8 9 5 NO 1021,4 10
18.11.2017 19:00:00 13,4 9,8 4 2 O 1020,8 10
18.11.2017 18:00:00 16,0 10,3 9 5 NO 1020,4 10
18.11.2017 17:00:00 18,4 11,6 8 4 ZW 1019,9 10
18.11.2017 16:00:00 19,2 11,7 15 8 WZW 1019,7 10
18.11.2017 15:00:00 19,4 10,0 18 10 WZW 1019,6 10
18.11.2017 14:00:00 19,9 7,4 13 7 ZW 1019,8 10
18.11.2017 13:00:00 21,1 7,9 0 0 N 1020,0 10
18.11.2017 12:00:00 19,7 8,7 2 1 - 1020,6 10
18.11.2017 11:00:00 18,1 9,9 0 0 N 1020,7 10
18.11.2017 10:00:00 14,4 8,7 0 0 N 1020,7 10
18.11.2017 09:00:00 9,6 6,5 0 0 N 1020,7 10
18.11.2017 08:00:00 5,8 4,1 8 4 NO 1020,1 10
18.11.2017 07:00:00 4,2 3,6 0 0 N 1019,9 10
18.11.2017 06:00:00 4,8 4,2 0 0 N 1019,4 10
18.11.2017 05:00:00 4,9 4,3 0 0 N 1019,2 10
18.11.2017 04:00:00 4,2 3,3 0 0 N 1019,2 10
18.11.2017 03:00:00 5,5 4,9 2 1 ONO 1019,7 10
18.11.2017 02:00:00 5,8 5,0 2 1 - 1019,8 10
18.11.2017 01:00:00 6,4 5,3 2 1 NNO 1020,0 15
18.11.2017 00:00:00 6,4 5,5 2 1 NO 1020,0 10
17.11.2017 23:00:00 7,9 6,9 0 0 N 1020,0 10
17.11.2017 22:00:00 8,5 7,3 0 0 N 1019,9 10
17.11.2017 21:00:00 10,1 8,2 0 0 N 1019,5 10
17.11.2017 20:00:00 10,7 8,5 2 1 - 1019,3 10
17.11.2017 19:00:00 12,7 8,8 0 0 N 1018,9 10
17.11.2017 18:00:00 15,1 9,9 9 5 NW 1018,6 10
17.11.2017 17:00:00 18,2 9,9 5 3 WNW 1018,3 10
17.11.2017 16:00:00 19,8 9,4 8 4 ZW 1018,5 10
17.11.2017 15:00:00 19,8 10,1 11 6 WZW 1018,6 10
17.11.2017 14:00:00 19,4 11,3 15 8 ZW 1019,1 10
17.11.2017 13:00:00 18,7 12,2 9 5 ZW 1019,7 10
17.11.2017 12:00:00 18,1 10,3 8 4 WZW 1020,4 10
17.11.2017 11:00:00 17,2 9,5 0 0 N 1020,8 10
17.11.2017 10:00:00 13,2 9,4 0 0 N 1020,8 10
17.11.2017 09:00:00 8,2 7,3 0 0 N 1020,8 10
17.11.2017 08:00:00 4,7 4,3 0 0 N 1020,4 10
17.11.2017 07:00:00 3,4 3,0 5 3 NO 1020,3 10
17.11.2017 06:00:00 3,8 3,4 2 1 - 1020,3 10
17.11.2017 05:00:00 3,8 3,4 2 1 N 1020,3 10
17.11.2017 04:00:00 3,4 2,8 2 1 ONO 1020,4 10
17.11.2017 03:00:00 4,6 4,0 5 3 N 1020,5 10
17.11.2017 02:00:00 5,5 4,8 2 1 N 1020,8 10
17.11.2017 01:00:00 6,2 5,5 2 1 - 1021,1 10
17.11.2017 00:00:00 7,1 6,4 8 4 N 1021,3 10
16.11.2017 23:00:00 7,5 6,1 0 0 N 1021,4 10
16.11.2017 22:00:00 9,2 7,6 4 2 N 1021,2 10
16.11.2017 21:00:00 10,2 8,3 5 3 N 1021,2 10
16.11.2017 20:00:00 10,9 8,3 11 6 ONO 1020,6 10
16.11.2017 19:00:00 12,3 9,5 8 4 NO 1020,2 10
16.11.2017 18:00:00 15,0 8,5 2 1 Z 1019,5 10
16.11.2017 17:00:00 17,7 9,1 8 4 WZW 1019,2 10
16.11.2017 16:00:00 18,7 10,2 13 7 WZW 1019,3 10
16.11.2017 15:00:00 19,2 6,6 9 5 WZW 1019,5 10
16.11.2017 14:00:00 19,6 6,6 5 3 WZW 1019,9 10
16.11.2017 13:00:00 20,0 4,4 2 1 - 1020,3 10
16.11.2017 12:00:00 18,6 6,5 2 1 - 1020,9 10
16.11.2017 11:00:00 16,7 5,3 2 1 - 1021,2 10
16.11.2017 10:00:00 11,9 6,2 0 0 N 1021,1 10
16.11.2017 09:00:00 7,2 4,5 2 1 - 1020,7 10
16.11.2017 08:00:00 3,9 2,4 0 0 N 1020,3 10
16.11.2017 07:00:00 3,9 2,3 2 1 - 1019,7 10
16.11.2017 06:00:00 4,4 3,4 8 4 NNO 1019,4 10
16.11.2017 05:00:00 3,0 2,1 2 1 - 1019,3 10
16.11.2017 04:00:00 2,4 1,4 4 2 ONO 1019,3 10
16.11.2017 03:00:00 2,7 1,8 2 1 NNO 1019,6 10
16.11.2017 02:00:00 3,3 2,4 2 1 NNO 1019,8 10
16.11.2017 01:00:00 3,6 2,3 2 1 NO 1020,1 10
16.11.2017 00:00:00 3,9 2,4 2 1 O 1020,4 10
15.11.2017 23:00:00 5,5 4,1 4 2 - 1020,3 10
15.11.2017 22:00:00 5,6 3,9 4 2 NNO 1020,1 10
15.11.2017 21:00:00 6,4 4,1 2 1 - 1019,8 10
15.11.2017 20:00:00 8,2 5,1 0 0 N 1019,6 10
15.11.2017 19:00:00 10,1 5,5 5 3 NO 1019,2 10
15.11.2017 18:00:00 13,0 5,4 4 2 - 1018,6 10
15.11.2017 17:00:00 15,9 6,1 13 7 NW 1018,3 10
15.11.2017 16:00:00 17,2 5,8 13 7 WNW 1018,4 10
15.11.2017 15:00:00 17,7 4,4 16 9 NW 1018,2 10
15.11.2017 14:00:00 17,6 6,4 21 11 NW 1018,6 10
15.11.2017 13:00:00 17,6 6,4 18 10 NNW 1019,1 10
15.11.2017 12:00:00 17,6 6,8 22 12 NW 1019,7 10
15.11.2017 11:00:00 17,1 6,7 21 11 WNW 1020,1 10
15.11.2017 10:00:00 15,4 7,3 2 1 - 1020,1 10
15.11.2017 09:00:00 7,9 4,5 0 0 N 1019,9 10
15.11.2017 08:00:00 3,2 1,9 2 1 - 1019,9 10
15.11.2017 07:00:00 2,7 1,7 5 3 ONO 1019,5 10
15.11.2017 06:00:00 3,0 1,7 0 0 N 1019,3 10
15.11.2017 05:00:00 3,4 2,2 4 2 - 1019,3 10
15.11.2017 04:00:00 3,2 1,7 2 1 - 1019,6 10
15.11.2017 03:00:00 4,4 2,4 4 2 - 1019,7 10
15.11.2017 02:00:00 6,0 2,6 0 0 N 1019,8 10
15.11.2017 01:00:00 7,5 3,0 11 6 NNO 1019,7 10
15.11.2017 00:00:00 8,9 3,3 4 2 ZZW 1020,3 10
14.11.2017 23:00:00 10,1 3,8 2 1 - 1020,3 10
14.11.2017 22:00:00 9,8 3,7 13 7 NO 1020,4 10
14.11.2017 21:00:00 10,1 3,6 13 7 NNO 1019,9 10
14.11.2017 20:00:00 9,4 3,6 2 1 - 1020,0 10
14.11.2017 19:00:00 9,5 3,5 4 2 NO 1019,3 10
14.11.2017 18:00:00 11,0 3,5 16 9 NO 1019,0 10
14.11.2017 17:00:00 12,1 3,4 24 13 NO 1018,8 10
14.11.2017 16:00:00 13,0 3,1 29 16 NO 1018,4 10
14.11.2017 15:00:00 13,1 1,3 31 17 NO 1018,0 10
14.11.2017 14:00:00 13,0 2,1 31 17 ONO 1018,1 10
14.11.2017 13:00:00 14,4 1,6 31 17 NO 1018,0 10
14.11.2017 12:00:00 13,5 1,2 35 19 NO 1018,3 10
14.11.2017 11:00:00 14,4 1,6 29 16 NO 1018,3 10
14.11.2017 10:00:00 14,2 1,8 29 16 NO 1017,8 10
14.11.2017 09:00:00 13,1 2,2 31 17 NO 1017,3 10
14.11.2017 08:00:00 11,3 1,3 22 12 ONO 1016,6 10
14.11.2017 07:00:00 9,8 0,8 24 13 NO 1016,3 10
14.11.2017 06:00:00 10,7 -0,2 24 13 ONO 1015,9 10
14.11.2017 05:00:00 11,7 1,0 24 13 ONO 1015,8 10
14.11.2017 04:00:00 11,6 1,7 13 7 NO 1015,3 10
14.11.2017 03:00:00 8,6 2,7 11 6 O 1015,5 10
14.11.2017 02:00:00 9,9 1,2 0 0 N 1015,0 10
14.11.2017 01:00:00 12,3 3,2 4 2 - 1014,9 10
14.11.2017 00:00:00 11,3 1,3 2 1 - 1014,6 10
13.11.2017 23:00:00 10,4 1,3 5 3 WZW 1014,9 10
13.11.2017 22:00:00 11,6 0,3 5 3 ZO 1014,3 10
13.11.2017 21:00:00 11,8 1,3 4 2 ZO 1014,0 10
13.11.2017 20:00:00 12,9 -1,1 11 6 N 1014,1 10

tt = temperatuur
td = dauwpunt
ff = windsnelheid
dd = windrichting
ppp = luchtdruk
vv = zicht

Weerstations in de omgeving